Location: Skymont Scout Reservation
(35.4344°N, 85.8742°W)
Time: 03:15:38
(UTC-05:00)

ISS - All Passes

Search period start: 29 April 2016 00:00
Search period end: 09 May 2016 00:00
Orbit: 402 x 405 km, 51.6° (Epoch: 28 April)

Date Brightness Start Highest point End Pass type
(mag) Time Alt. Az. Time Alt. Az. Time Alt. Az.
29 Apr - 08:09:22 10° SSW 08:12:33 54° SE 08:15:45 10° ENE daylight
29 Apr - 09:47:04 10° WNW 09:49:14 16° NNW 09:51:25 10° NNE daylight
29 Apr - 14:40:01 10° NNW 14:42:29 19° NNE 14:44:57 10° E daylight
29 Apr - 16:15:59 10° WNW 16:19:04 39° SW 16:22:08 10° SSE daylight
30 Apr - 07:17:30 10° S 07:20:13 24° SE 07:22:56 10° ENE daylight
30 Apr - 08:53:46 10° W 08:56:36 27° NW 08:59:27 10° NNE daylight
30 Apr - 13:48:17 10° N 13:49:48 13° NNE 13:51:19 10° NE daylight
30 Apr - 15:23:24 10° NW 15:26:40 89° NE 15:29:56 10° SE daylight
01 May - 06:26:40 10° SSE 06:27:57 12° SE 06:29:14 10° ESE daylight
01 May - 08:00:52 10° WSW 08:04:03 51° NW 08:07:15 10° NE daylight
01 May - 14:31:03 10° NW 14:34:11 41° NE 14:37:18 10° ESE daylight
01 May - 16:08:27 10° W 16:10:22 15° SW 16:12:17 10° SSW daylight
02 May - 07:08:20 10° SW 07:11:35 72° SE 07:14:50 10° NE daylight
02 May - 08:46:31 10° WNW 08:48:22 14° NNW 08:50:13 10° N daylight
02 May - 13:38:55 10° NNW 13:41:36 23° NNE 13:44:16 10° E daylight
02 May - 15:15:09 10° WNW 15:18:04 30° SW 15:20:59 10° SSE daylight
03 May - 06:16:15 10° SSW 06:19:11 31° SE 06:22:08 10° ENE daylight
03 May - 07:53:01 10° W 07:55:40 22° NNW 07:58:21 10° NNE daylight
03 May - 12:47:00 10° N 12:48:54 14° NNE 12:50:48 10° ENE daylight
03 May - 14:22:26 10° NW 14:25:41 70° SW 14:28:54 10° SE daylight
04 May - 05:24:54 10° SSE 05:26:52 15° SE 05:28:51 10° E daylight
04 May - 06:59:58 10° WSW 07:03:04 40° NW 07:06:11 10° NE daylight
04 May - 13:30:00 10° NW 13:33:12 52° NE 13:36:23 10° ESE daylight
04 May - 15:08:06 10° WSW 15:09:17 12° SW 15:10:28 10° SSW daylight
05 May - 06:07:17 10° SW 06:10:32 87° NW 06:13:49 10° NE daylight
05 May - 07:45:57 10° NW 07:47:25 12° NNW 07:48:54 10° N daylight
05 May - 12:37:45 10° NNW 12:40:36 27° NE 12:43:27 10° E daylight
05 May - 14:14:17 10° WNW 14:16:59 24° SW 14:19:40 10° S daylight
06 May - 05:15:01 10° SSW 05:18:06 40° SE 05:21:12 10° ENE visible
06 May - 06:52:14 10° W 06:54:40 19° NNW 06:57:07 10° NNE daylight
06 May - 11:45:43 10° NNW 11:47:55 17° NNE 11:50:07 10° ENE daylight
06 May - 13:21:24 10° WNW 13:24:35 53° SW 13:27:46 10° SSE daylight
07 May - 04:23:20 10° S 04:25:44 19° SE 04:28:08 10° E visible
07 May - 05:59:01 10° WSW 06:02:00 33° NW 06:05:00 10° NNE daylight
07 May - 10:54:11 10° N 10:55:08 11° NNE 10:56:05 10° NE daylight
07 May - 12:28:51 10° NW 12:32:06 68° NE 12:35:21 10° SE daylight
08 May - 05:06:11 10° SW 05:09:26 67° NW 05:12:41 10° NE visible
08 May - 06:45:28 10° NW 06:46:24 11° NNW 06:47:20 10° N daylight
08 May - 11:36:31 10° NNW 11:39:32 33° NE 11:42:31 10° ESE daylight
08 May - 13:13:25 10° W 13:15:48 19° SW 13:18:11 10° S daylight
